Terug naar catalogus

FENGYUN 1D

ActiefWeerSSO
NORAD 27431·PAYLOAD·🇨🇳 China

Gelanceerd May 15, 2002 vanaf Taiyuan Satellite Launch Center

Loading…

Volgende Passages (komende 24 uur)

TLE

VersSource: Space-Track

Epoch: Sep 14, 2026, 09:40 UTC

1 27431U 02024B   26257.40307039 -.00000019  00000-0  14694-4 0  9992
2 27431  98.9431 307.2880 0015207 355.7592   4.3447 14.10234140252058

Volg FENGYUN 1D in realtime met AllMySat

Download on the App Store